Theta_e
325 325 325 325 327 327 328 329 329 328 329 330 330 329 328 327 327 327 326 325 323 322 321 322 321 322 321 321 320 319 318 317 317 316 316 315 314 313 312 311 310 310 310 310 309 308 306 306 306 307 309 309 310 309 309 309 310 310 310 310 310 311 310 309 307 308 312 316 316 315 317 318 315 317 317 319 322 324 322 326 327 328 328 327 331
324 325 326 326 326 325 325 328 328 328 329 329 329 328 328 327 329 327 327 326 324 322 320 322 322 322 321 320 320 318 318 316 316 316 314 314 314 313 313 311 310 309 310 307 309 308 309 306 305 306 307 306 309 307 308 308 307 309 309 309 307 308 311 308 308 307 307 312 312 314 315 316 313 317 318 320 321 321 320 322 323 324 322 324 326
323 323 324 325 326 326 326 325 325 327 327 328 328 327 327 328 328 328 326 326 324 323 321 322 322 321 321 320 319 318 317 316 316 315 315 314 312 313 312 311 310 310 309 307 306 306 307 306 306 306 307 307 308 309 309 309 308 306 308 308 308 309 308 307 306 305 306 307 311 309 311 314 315 313 315 317 317 317 316 317 317 318 320 322 322
323 323 324 324 325 326 326 327 326 326 326 326 327 328 327 327 327 327 326 326 324 324 322 323 322 321 321 320 319 317 316 316 315 315 314 313 312 311 311 311 310 309 308 307 306 306 306 305 306 306 306 306 306 306 307 308 307 307 307 308 309 308 309 309 309 306 306 304 308 308 309 311 312 313 313 313 313 314 315 316 317 317 319 320 322
322 322 323 324 325 325 325 325 325 325 326 326 326 326 327 326 326 324 325 325 325 324 322 324 321 320 321 319 318 317 316 315 315 314 314 314 312 312 311 310 310 309 308 307 307 306 305 305 305 305 305 306 306 306 306 307 305 306 305 305 305 307 309 309 308 308 306 305 306 309 310 309 310 310 311 310 311 312 314 315 316 316 318 321 322
317 322 324 323 322 322 324 324 324 325 325 326 325 324 324 325 325 325 322 322 324 324 324 322 321 320 321 319 318 317 316 315 314 313 313 313 312 312 311 310 309 307 307 306 305 305 305 304 304 305 304 304 305 305 306 307 306 306 305 305 304 306 307 307 307 307 306 306 306 306 309 307 308 309 310 311 310 310 311 313 315 316 317 319 320
313 314 317 321 321 321 322 324 325 326 327 327 327 325 325 325 324 324 324 323 323 323 323 322 322 321 320 319 318 317 315 315 314 314 313 312 311 311 310 309 308 307 305 303 303 304 304 303 304 304 304 304 304 304 306 306 306 306 306 306 306 306 305 305 304 305 305 304 305 306 306 308 309 307 310 311 310 309 309 310 311 314 316 317 318
311 311 312 316 316 318 320 322 323 324 325 325 325 326 326 325 325 324 324 324 323 323 321 321 322 321 320 318 318 316 315 314 314 313 312 312 311 311 309 308 306 305 304 302 303 303 303 303 303 302 303 303 304 304 303 302 303 304 305 305 306 305 304 304 304 304 304 304 304 304 305 305 307 309 309 309 308 309 309 310 311 314 317 320 321
310 309 310 311 312 314 316 318 321 322 323 323 323 324 325 326 325 325 324 324 323 323 322 321 320 319 318 318 317 316 315 314 313 313 312 311 311 309 307 305 304 303 302 302 302 302 301 302 302 302 301 299 298 298 299 299 300 299 301 303 303 304 304 304 303 303 303 303 303 304 304 304 305 306 306 307 308 308 311 313 311 311 312 313 315
309 309 309 310 310 311 314 317 319 320 321 321 322 323 323 324 324 324 324 323 323 323 322 321 318 318 316 316 315 315 314 314 308 303 305 309 308 306 305 304 302 302 301 301 301 301 301 302 302 298 299 299 298 296 294 295 297 299 300 302 302 302 302 302 302 302 302 301 302 302 302 302 304 306 306 308 310 311 310 310 308 310 312 312 314
308 308 308 308 310 310 310 313 316 318 319 320 321 321 321 321 322 322 323 322 323 321 318 317 316 318 315 315 314 314 314 310 295 294 294 297 305 306 304 303 302 301 301 300 300 301 301 301 302 302 300 299 299 294 293 294 294 294 295 296 297 299 299 299 300 301 301 301 302 302 302 302 304 305 306 306 308 309 309 310 309 309 308 308 307
308 308 308 308 308 308 309 310 312 315 318 318 319 321 321 321 320 320 321 321 320 318 318 315 315 314 314 313 314 314 311 296 292 292 293 293 298 303 303 302 301 301 300 300 300 300 300 301 301 302 302 302 301 298 298 294 292 293 292 292 292 292 293 298 298 299 300 300 300 301 302 301 302 304 304 305 306 307 308 309 309 309 308 308 309
308 308 309 308 308 309 308 309 310 312 315 317 318 320 319 319 319 319 318 319 318 317 315 316 316 316 314 311 309 308 301 291 291 291 292 292 293 298 302 302 301 300 300 300 299 299 300 299 300 301 302 301 299 300 301 300 295 293 292 293 292 292 291 290 292 298 299 299 299 300 301 302 302 303 305 306 306 305 306 305 306 308 308 308 308
308 308 309 309 309 309 309 309 309 310 313 316 318 317 317 317 319 319 318 318 317 317 316 315 315 314 311 310 308 306 300 292 291 291 291 290 290 294 303 302 301 300 300 299 300 300 300 300 299 300 301 301 301 300 301 300 299 299 300 300 301 299 293 291 290 290 294 297 297 297 300 302 300 303 305 305 304 302 303 303 305 306 306 306 309
308 308 309 309 310 309 309 309 309 310 312 314 316 316 316 316 317 317 317 317 316 315 314 314 313 311 310 309 308 306 300 291 290 290 290 290 289 292 302 301 300 300 300 300 300 300 300 301 301 300 300 301 300 299 299 298 298 298 298 298 299 300 301 302 302 301 299 299 298 299 300 301 302 303 304 305 305 303 303 303 304 305 305 306 306
307 308 308 309 309 310 310 309 310 310 311 313 314 315 316 316 315 316 317 317 317 316 313 312 311 310 310 309 307 304 299 289 290 290 290 290 288 297 301 301 301 300 300 300 300 300 300 301 300 300 300 300 297 292 293 297 296 296 296 297 298 299 300 298 296 296 299 301 302 302 302 302 297 300 301 302 302 302 302 302 303 302 301 300 300
305 306 307 308 309 310 310 310 310 310 311 312 313 315 315 315 315 316 315 316 315 314 312 311 310 310 308 307 305 303 298 291 290 290 290 289 292 299 301 300 300 301 301 301 301 301 301 301 301 300 300 299 295 291 290 292 296 295 296 296 297 298 298 300 296 293 292 293 292 292 291 291 292 292 292 292 295 298 299 298 298 300 298 297 298
305 305 307 308 309 309 309 309 309 310 311 312 313 314 315 315 314 314 314 315 315 313 311 310 311 308 306 304 303 304 300 293 289 290 290 289 293 300 301 300 300 300 300 301 301 301 301 300 299 299 299 299 293 290 290 293 295 295 295 295 295 295 296 298 299 299 294 292 291 291 291 292 292 291 292 292 292 294 297 295 298 298 296 297 295
305 305 307 308 309 310 310 310 310 310 311 312 313 314 314 313 314 314 314 315 315 315 310 309 308 307 307 306 302 303 302 297 289 290 290 290 294 299 299 299 299 300 300 300 301 301 301 300 297 297 298 296 291 290 289 292 295 295 295 294 293 293 295 297 297 297 297 297 297 298 297 295 296 297 297 294 293 294 298 297 298 297 295 296 296
305 306 307 308 309 309 310 310 310 311 311 312 313 313 314 314 314 314 314 314 314 314 310 307 305 306 305 304 303 302 300 299 294 289 290 289 290 298 300 299 298 299 299 298 299 300 300 300 298 292 291 291 290 289 289 289 293 295 294 293 292 292 295 296 296 295 295 295 295 296 296 297 297 297 298 298 298 298 297 297 297 296 295 295 295
305 306 307 307 308 309 309 310 310 311 313 313 313 313 313 313 314 314 314 314 312 310 307 305 305 305 304 303 302 302 302 302 296 289 290 290 288 291 299 299 299 298 298 297 298 298 297 298 299 294 289 289 289 288 288 288 289 293 293 292 293 293 292 293 292 291 293 293 292 293 293 294 295 295 296 296 296 297 298 297 298 298 296 295 295
305 306 306 306 307 308 309 310 311 312 313 312 312 312 313 313 313 312 310 309 307 304 302 302 301 302 302 301 301 300 298 298 302 291 290 290 289 289 297 299 298 298 296 296 296 296 297 298 298 293 287 289 288 288 288 288 288 291 292 289 288 288 290 291 291 291 291 291 291 291 292 292 293 293 293 294 295 296 297 298 298 298 298 298 296
305 306 306 306 307 308 309 310 310 312 313 312 311 311 311 311 310 308 307 305 303 301 301 301 300 299 300 299 300 300 301 298 293 296 290 290 289 290 289 293 290 295 296 295 296 296 298 298 297 291 288 288 288 288 288 288 288 291 288 288 288 287 288 290 290 290 290 289 289 289 290 291 291 292 292 293 295 296 297 297 298 298 298 298 299
305 305 305 307 307 307 308 309 310 312 312 311 311 310 311 308 304 303 302 300 299 298 300 299 298 297 297 299 299 299 299 299 293 291 293 288 289 288 288 287 288 295 296 296 296 297 297 298 295 288 288 288 288 288 288 288 290 288 288 287 287 288 290 290 290 289 289 289 288 289 289 291 291 291 292 294 295 296 296 297 297 297 297 297 298
304 305 306 306 306 307 308 309 310 310 310 310 308 305 302 301 300 300 300 299 299 298 298 297 297 297 297 296 297 298 299 299 300 294 289 290 288 288 287 287 287 287 293 296 296 296 292 289 288 289 288 288 288 288 288 288 288 287 287 287 288 291 290 290 290 290 289 289 289 289 290 291 292 293 295 295 295 296 295 296 296 297 297 297 297
304 304 305 305 305 305 306 307 308 308 308 307 304 302 301 300 299 300 299 298 298 299 298 298 296 294 297 298 296 296 297 298 298 300 295 294 292 287 288 288 289 289 290 293 290 289 288 288 287 287 288 289 291 292 291 292 289 288 288 288 291 291 291 291 290 290 289 289 290 290 291 293 293 294 295 295 294 293 294 294 294 294 295 294 294
302 303 303 304 305 305 305 305 306 306 303 302 302 301 301 300 300 299 299 298 298 297 297 294 294 294 295 296 296 296 296 297 298 298 299 299 299 297 296 296 291 290 294 295 292 293 292 291 291 289 289 288 288 288 288 289 290 291 292 292 292 292 291 292 291 291 290 291 290 291 292 293 294 293 293 293 292 293 294 292 292 292 293 293 293
302 302 303 303 303 305 305 296 298 301 300 301 300 300 299 299 300 299 298 298 296 295 295 295 294 295 295 296 296 296 296 297 297 296 298 297 297 297 297 296 296 296 295 295 293 292 292 290 290 293 292 291 291 292 292 291 291 290 291 291 291 291 291 290 290 292 292 292 292 292 291 292 291 292 292 293 292 292 293 292 291 291 292 292 291
301 302 302 303 304 303 305 301 300 299 299 299 300 300 299 298 299 300 299 298 296 295 296 299 298 298 298 298 296 295 295 296 295 289 290 288 290 293 294 294 294 294 291 287 289 291 292 292 291 290 290 288 288 290 290 290 289 290 291 291 291 291 291 291 290 290 291 291 291 291 290 291 291 291 291 291 291 291 292 292 292 291 292 292 291
302 302 302 302 303 304 304 301 300 299 299 299 296 294 288 290 298 301 299 291 291 292 293 298 298 299 297 297 297 296 296 295 287 287 288 288 287 286 287 287 287 288 288 286 288 290 290 289 289 289 289 288 287 287 288 289 289 288 289 288 289 290 290 290 290 291 291 290 290 289 289 289 289 290 290 290 291 291 292 290 291 292 290 290 289
301 301 301 301 301 303 302 300 301 299 298 298 296 294 295 292 287 287 289 290 289 289 288 288 288 290 296 295 291 286 287 286 287 288 287 287 287 287 287 287 287 287 287 288 289 289 289 288 288 288 288 288 287 287 288 288 288 288 288 289 289 288 288 290 290 289 289 289 289 289 289 289 288 289 288 289 289 290 291 291 291 291 291 290 289
301 301 301 302 301 300 301 300 299 298 298 298 297 296 294 293 293 288 287 288 288 288 287 287 288 288 287 290 293 293 287 286 287 287 287 287 287 286 286 286 287 286 287 286 288 289 289 288 287 287 288 287 287 287 288 288 288 288 288 287 287 288 288 288 289 289 288 288 288 288 288 288 289 289 289 289 288 289 290 289 290 290 290 291 291
301 302 302 302 300 298 298 298 296 296 297 297 297 296 294 293 292 291 290 288 287 287 287 287 287 287 287 286 286 288 288 288 287 287 287 287 286 287 286 286 286 286 286 288 289 288 288 288 287 288 288 287 287 288 288 288 288 288 288 287 287 288 288 288 288 288 288 288 288 287 288 288 288 288 288 289 288 288 289 289 290 290 290 289 289
301 301 302 300 299 299 300 299 298 298 299 298 297 296 294 294 293 292 291 291 290 288 288 287 286 287 286 287 287 287 287 287 286 286 286 287 286 287 287 288 287 286 286 288 288 288 288 288 288 288 288 288 288 288 287 288 288 287 287 287 288 288 288 289 288 287 287 288 288 288 288 288 288 288 289 289 289 289 288 288 289 289 289 289 289
301 292 290 293 299 298 300 299 301 300 298 296 295 295 296 296 293 293 293 291 292 291 292 291 289 289 289 288 287 286 287 286 287 287 286 286 287 286 286 291 289 290 290 291 289 289 288 287 287 288 288 287 287 287 287 288 287 287 286 287 287 287 287 287 287 287 287 288 288 287 287 288 288 289 288 288 288 288 288 288 289 289 289 289 290
297 297 296 295 297 298 297 296 297 297 296 294 294 293 294 294 294 294 293 294 293 293 292 292 291 287 286 287 286 286 285 286 287 287 287 286 287 286 289 288 288 289 288 290 289 288 288 288 288 288 288 288 288 288 288 287 287 287 287 287 286 286 286 286 286 286 287 288 287 287 288 288 288 288 289 289 288 288 288 288 288 289 289 290 290
297 296 295 295 296 296 296 296 295 295 290 292 293 294 294 295 295 296 295 295 294 294 294 292 292 291 290 290 287 286 286 286 286 286 287 288 285 290 291 289 288 289 288 288 288 288 288 288 288 288 288 288 288 288 288 287 287 287 287 287 286 286 286 286 287 286 286 286 287 287 287 287 288 288 288 288 288 288 288 288 288 288 289 289 288
296 296 295 296 296 296 296 297 296 290 293 294 296 295 295 296 295 295 294 295 293 293 293 294 290 292 291 291 291 292 290 287 285 286 287 288 290 291 290 290 289 288 288 288 288 288 287 288 289 288 288 288 288 288 287 287 287 287 286 286 286 286 286 286 286 287 287 287 286 287 287 287 288 288 288 287 288 288 288 288 289 289 289 289 289
295 288 288 288 290 296 296 294 294 295 295 295 295 294 293 295 295 294 295 294 293 294 293 294 295 294 293 295 294 293 291 292 292 291 291 292 292 291 291 290 290 289 289 288 288 288 288 287 288 288 289 288 287 287 287 286 287 286 286 286 286 286 286 286 286 286 286 286 286 287 287 287 288 288 288 288 288 288 289 289 289 289 289 289 290
296 296 291 288 292 292 293 293 294 295 294 295 295 295 294 295 296 294 294 294 294 293 294 294 293 295 293 293 292 294 294 291 291 291 291 290 291 291 290 289 289 289 288 289 288 288 288 288 288 288 288 288 287 287 287 287 287 287 286 286 286 285 286 286 286 286 286 287 287 287 287 287 288 289 289 289 289 289 289 289 289 289 290 291 291
295 294 291 290 290 294 293 294 294 294 296 295 295 295 295 296 296 295 295 294 295 293 294 294 294 292 289 284 282 283 291 293 291 291 291 290 290 289 289 289 289 289 289 288 288 288 288 288 288 287 287 287 287 287 287 287 287 287 286 286 286 285 286 286 286 286 287 287 287 287 287 288 288 288 288 288 288 289 289 290 290 291 291 292 291
294 293 293 293 293 295 295 294 294 294 295 294 296 297 295 296 296 296 295 294 293 293 293 293 293 289 283 280 283 282 290 292 290 290 290 290 290 289 289 290 290 290 289 289 288 288 287 287 288 288 287 287 287 286 286 286 286 286 286 286 285 285 285 286 286 286 286 286 287 287 287 288 288 288 289 289 290 290 290 291 291 291 292 291 291
295 295 295 294 295 295 295 296 297 296 295 295 294 292 294 296 296 294 294 293 293 292 292 292 292 290 287 283 284 284 290 289 286 288 289 289 289 289 290 290 290 290 290 290 291 289 288 288 288 288 287 287 287 287 286 286 286 286 286 285 285 285 285 286 286 286 286 286 286 286 286 287 288 290 291 291 291 291 292 292 292 292 291 290 289
294 294 293 293 294 295 295 296 294 293 293 290 292 294 295 295 295 295 293 292 293 292 292 292 291 291 290 287 286 289 290 288 288 288 288 287 288 288 289 290 289 289 290 290 290 290 289 289 288 288 288 288 288 287 287 287 287 286 286 285 285 285 285 285 285 286 286 286 286 286 287 287 288 290 291 291 291 291 291 291 291 290 290 290 289
296 295 294 294 295 295 294 294 293 293 291 292 294 294 293 295 293 292 292 292 290 291 290 290 290 290 290 290 290 290 290 288 287 287 287 287 287 288 289 289 289 288 289 289 290 289 289 289 289 288 287 287 287 287 287 287 287 287 286 286 285 285 285 285 286 286 286 286 287 287 287 287 288 290 291 291 291 291 290 289 289 287 289 289 289
295 294 293 294 294 293 293 294 292 294 294 293 293 293 293 293 293 291 290 290 290 290 289 289 289 288 289 289 290 288 288 288 288 287 287 287 287 287 288 288 288 288 289 289 289 289 289 289 288 288 287 287 287 287 287 287 287 287 286 286 286 286 286 286 287 286 287 288 288 287 287 287 288 289 288 290 290 290 289 289 289 289 289 288 288
295 294 292 292 292 291 291 291 292 292 292 291 291 291 291 291 290 288 286 286 287 287 289 290 289 288 287 287 287 287 287 287 286 286 286 286 286 286 286 286 287 288 288 289 289 289 289 289 289 288 288 287 287 287 287 287 287 287 286 287 287 286 286 287 287 287 288 288 288 288 287 287 288 289 289 289 289 289 289 289 289 289 289 289 288
294 293 293 293 293 292 292 292 291 288 290 289 289 288 288 289 289 288 288 288 287 288 288 288 287 287 286 286 285 285 286 285 285 285 285 286 286 286 285 285 286 287 287 288 289 289 289 289 289 288 288 288 287 287 287 287 287 287 287 287 287 286 287 287 288 288 289 289 289 289 288 288 288 288 289 289 289 289 288 288 288 289 288 288 288
293 293 292 291 291 291 290 290 289 290 289 289 288 288 287 288 288 288 287 287 287 287 288 287 287 287 286 285 285 285 285 285 285 285 285 285 285 285 285 285 285 285 287 287 288 289 289 289 289 289 288 288 288 288 288 287 287 287 286 286 286 286 286 286 287 288 288 289 289 289 289 288 288 288 288 288 288 288 288 288 288 288 288 288 288
292 291 291 290 290 290 290 290 290 289 288 289 288 288 287 287 286 286 286 286 287 286 286 286 286 286 286 285 284 284 284 284 284 285 285 285 285 285 285 284 284 285 286 287 288 289 289 289 289 289 289 288 288 288 288 287 287 286 286 286 285 286 286 287 287 287 288 289 289 290 289 289 288 288 288 288 288 288 288 288 288 288 288 287 287
289 290 289 289 289 289 289 289 288 288 288 288 288 288 287 287 286 287 286 287 286 286 286 286 285 285 285 285 283 283 283 284 284 285 285 285 284 284 284 284 284 285 285 286 288 288 288 289 289 289 289 288 288 288 288 288 287 287 286 285 285 286 286 287 288 287 287 287 289 289 289 288 288 288 288 289 289 288 288 288 288 288 288 288 287
Wind_Speed
7 6 6 8 8 9 9 8 10 9 10 9 9 9 9 9 9 9 9 9 10 11 11 12 12 11 11 10 10 9 9 8 6 5 4 5 4 4 5 5 5 4 3 4 3 2 0 1 1 1 1 4 3 3 3 3 4 4 4 4 5 5 6 7 9 9 8 6 7 7 7 7 8 8 9 8 7 7 8 8 9 8 9 9 7
6 7 7 7 10 10 11 10 9 9 10 10 10 9 9 9 9 9 10 10 11 12 13 11 11 12 12 12 11 10 10 9 8 6 6 6 6 4 4 5 4 4 3 2 3 2 2 1 1 0 2 3 3 6 3 4 5 5 4 3 5 5 5 7 8 8 10 7 7 7 8 8 8 7 7 7 7 8 9 9 7 9 9 9 9
6 6 6 8 10 9 10 11 11 11 11 10 11 11 9 9 9 10 10 10 11 12 12 13 13 13 12 12 12 11 10 9 8 8 7 8 7 6 5 5 4 4 4 2 1 1 1 1 1 0 1 3 3 4 4 5 5 6 5 5 6 6 6 7 8 9 10 9 8 8 8 7 7 8 9 8 8 9 10 10 10 9 9 9 9
5 6 6 7 7 7 7 8 9 10 11 11 11 10 9 9 9 10 10 9 11 11 13 14 14 13 13 12 12 12 11 10 9 9 9 8 8 8 7 6 5 4 3 3 2 2 1 2 1 2 2 3 3 4 4 3 5 6 6 6 6 7 7 7 8 8 9 10 9 9 8 9 8 8 8 8 9 9 9 10 10 10 10 9 9
2 2 2 5 6 5 6 6 8 10 11 9 9 8 8 8 8 9 9 10 11 12 12 14 14 15 13 14 13 13 12 12 11 10 9 8 8 8 7 6 6 5 4 3 3 3 2 2 2 2 2 3 3 4 3 5 6 6 7 6 7 7 6 7 8 9 9 10 10 9 9 10 9 9 9 9 9 9 9 10 9 10 10 9 8
6 5 3 3 4 3 5 6 8 10 10 9 11 12 11 12 11 10 11 12 13 13 14 13 14 15 15 15 14 13 13 12 12 11 10 9 8 7 7 6 6 5 4 3 3 3 3 3 2 3 3 3 4 4 5 6 6 6 7 7 8 8 8 9 9 10 11 11 10 10 9 9 9 8 9 9 9 9 9 9 10 10 10 9 9
7 8 6 3 4 5 6 7 8 9 10 10 10 10 10 11 12 12 11 12 13 13 13 14 14 15 15 14 14 14 13 13 12 11 10 10 9 9 8 7 6 5 4 4 4 3 3 3 3 3 4 4 4 5 5 6 6 7 7 7 8 8 8 9 9 11 11 11 11 10 10 9 9 9 8 8 9 9 10 9 9 8 8 9 8
7 6 6 6 6 7 5 5 7 8 9 9 10 11 12 12 13 12 11 12 13 13 14 13 12 14 15 15 14 13 13 13 12 12 11 10 9 9 8 6 6 5 5 4 4 4 4 3 4 3 3 4 3 4 5 6 6 7 7 7 8 8 9 9 9 10 10 11 10 10 9 9 8 9 8 8 9 8 8 8 8 7 7 7 8
3 4 4 5 6 4 4 4 5 6 7 8 9 11 12 12 12 12 11 11 11 12 13 14 14 15 15 15 15 13 12 12 11 11 10 10 8 8 7 6 5 5 5 4 4 4 4 3 4 3 1 5 5 6 7 7 7 7 8 8 9 9 9 9 10 10 10 10 11 10 10 10 9 9 9 8 8 8 6 7 8 9 9 9 10
3 4 3 3 3 4 4 4 5 6 7 7 8 9 10 11 11 12 13 12 11 12 12 12 12 10 12 13 13 12 11 9 8 12 9 8 8 6 6 5 5 5 4 4 4 3 3 3 4 4 3 7 9 10 10 10 10 9 9 8 9 9 10 10 10 10 10 11 11 11 11 10 9 9 9 9 8 8 9 9 10 9 9 9 9
3 3 3 3 3 4 5 5 5 6 6 7 7 8 9 9 10 11 11 12 11 8 12 11 9 8 11 13 14 12 10 7 13 11 9 6 6 6 6 5 5 4 4 4 3 3 4 4 4 7 10 12 12 15 13 12 12 13 13 13 12 11 11 11 11 11 11 11 11 11 11 12 11 11 10 10 10 9 8 8 9 8 9 9 9
6 6 6 6 6 6 5 6 6 6 6 7 7 7 7 8 9 8 8 9 9 10 11 14 15 14 12 11 9 7 6 12 13 12 10 7 4 5 5 5 5 5 4 4 3 3 4 4 5 5 6 6 6 7 10 15 15 14 13 13 13 15 15 13 12 12 12 12 12 12 12 12 12 11 10 10 10 9 9 9 9 9 9 9 9
6 5 6 7 7 7 7 7 7 7 7 7 6 6 6 7 8 8 8 9 12 12 12 13 13 13 11 10 9 9 9 11 11 12 10 8 4 3 5 5 5 5 4 4 4 4 5 5 5 5 5 6 7 8 8 7 8 14 14 14 16 16 16 17 17 16 14 15 14 15 13 12 13 12 11 11 10 11 10 10 10 10 10 11 10
6 6 7 7 7 7 7 7 7 7 8 7 6 6 6 7 7 7 7 9 11 11 12 13 12 11 10 10 9 9 9 12 14 12 11 9 8 7 3 5 4 3 4 4 4 5 6 6 6 6 7 7 7 8 8 8 10 10 9 9 10 12 18 21 20 20 18 16 16 16 15 14 14 13 12 11 12 13 12 12 11 12 12 13 13
7 7 7 7 7 7 7 7 7 8 8 8 7 6 6 6 7 7 7 9 10 10 10 11 10 10 11 10 9 9 8 13 12 12 11 10 10 7 4 4 4 4 5 5 6 6 7 7 7 8 8 8 7 7 9 10 11 10 11 11 12 12 12 11 12 13 13 15 17 17 16 15 15 16 15 13 15 14 14 14 14 14 14 14 14
9 8 8 7 7 7 7 8 8 8 8 8 7 7 6 6 7 7 7 8 9 9 8 8 9 10 9 9 9 9 9 14 12 12 12 10 10 6 4 4 4 5 5 6 6 7 7 7 8 8 8 8 9 4 6 8 11 12 12 12 12 12 12 11 12 10 12 14 13 13 12 12 13 12 12 11 11 11 12 14 14 14 14 15 16
10 10 9 9 8 8 8 8 8 8 8 8 8 7 7 7 7 7 8 9 9 9 9 8 9 9 9 8 9 8 9 12 12 12 11 11 9 5 3 4 5 5 6 6 7 7 8 8 8 8 9 10 8 2 3 5 11 13 13 13 12 12 12 12 13 16 18 17 17 19 21 22 22 20 18 19 13 11 12 13 13 12 15 16 15
10 10 9 9 9 9 9 9 9 8 8 8 8 7 7 7 8 8 10 10 10 9 9 9 9 9 11 10 7 7 9 11 11 10 10 11 8 4 4 5 5 5 6 7 7 7 8 4 6 11 12 11 8 2 1 5 12 12 13 14 15 15 14 12 11 11 12 15 16 18 19 19 21 22 22 21 21 16 14 18 16 15 17 16 16
11 10 9 9 9 8 9 9 9 9 9 9 8 8 8 9 8 9 10 10 10 10 9 10 9 9 9 10 8 8 7 10 11 10 9 10 7 5 5 5 6 6 6 7 7 8 8 7 11 12 12 11 9 8 6 7 11 11 15 16 17 17 15 16 15 15 15 15 14 13 13 16 16 17 18 19 19 18 18 18 18 18 20 17 16
11 10 9 9 8 8 8 9 9 9 9 9 9 8 7 8 10 10 10 10 9 10 9 10 11 9 8 7 5 6 8 6 9 8 7 6 6 6 5 6 6 7 7 8 8 8 9 9 9 12 15 13 10 8 7 7 10 12 15 15 16 17 15 16 15 14 16 15 16 16 17 16 15 14 15 16 15 17 19 20 19 19 19 18 16
11 10 9 9 9 9 8 9 9 9 9 9 9 9 8 9 9 10 9 8 8 9 9 10 9 9 9 8 6 3 4 6 8 10 9 8 7 5 4 5 7 7 8 8 8 9 9 9 10 6 7 3 3 4 6 8 9 11 15 16 17 16 15 15 17 18 17 17 17 17 15 15 15 15 15 15 15 15 16 16 19 18 19 18 18
11 11 11 11 10 9 9 9 9 8 9 10 10 10 9 9 9 8 7 9 9 9 9 7 8 8 6 5 5 5 5 5 6 9 9 8 7 4 4 3 5 6 8 9 9 10 10 9 11 6 8 8 7 8 10 11 12 13 17 19 19 17 17 18 17 15 15 15 15 15 14 14 14 14 14 15 15 15 15 16 16 17 18 18 18
12 12 11 11 10 10 10 10 9 7 8 10 11 11 8 7 6 6 7 7 9 10 10 9 8 7 6 5 4 4 6 7 4 6 9 6 7 6 3 4 3 5 7 9 9 10 10 11 12 10 16 15 16 16 17 18 16 15 16 16 17 17 16 16 16 16 15 15 15 15 15 14 14 14 14 14 14 15 15 14 16 17 15 16 16
13 12 11 10 11 11 10 10 10 9 10 11 10 9 6 6 6 7 9 11 10 8 7 8 8 8 7 6 6 6 6 5 7 6 5 4 2 2 4 4 4 5 6 8 9 10 11 12 11 18 19 18 18 18 17 18 15 18 19 20 20 18 14 16 15 15 14 14 15 15 15 14 14 14 13 13 14 14 14 15 15 16 16 16 16
13 12 12 11 11 11 11 10 11 9 10 9 7 5 9 8 8 9 9 9 8 8 7 7 7 6 5 5 5 5 5 3 4 7 5 6 7 6 6 5 6 6 6 7 8 9 10 12 14 16 15 17 19 20 18 19 21 21 21 20 18 12 14 14 14 13 14 14 14 14 14 14 14 14 13 14 13 14 14 13 14 15 16 17 17
13 13 12 11 11 11 12 12 10 10 7 6 7 8 10 10 11 10 8 8 9 9 8 5 6 7 6 5 4 4 3 3 2 4 6 7 6 9 7 8 8 8 10 10 13 16 16 15 15 16 16 15 12 11 12 13 14 16 17 17 12 12 12 12 12 13 14 13 14 14 14 13 14 14 14 14 14 14 14 14 14 14 14 15 15
16 15 14 12 11 11 13 10 8 3 6 6 7 8 10 10 11 10 9 9 9 8 7 8 8 7 6 6 5 4 4 3 3 2 3 3 4 1 4 5 10 12 9 7 8 8 8 10 13 15 16 18 18 17 17 16 13 12 10 10 11 12 11 12 13 13 13 14 14 14 14 14 13 12 13 13 14 14 14 13 14 14 13 12 13
16 16 15 13 11 11 11 5 8 8 8 9 10 10 8 9 8 7 8 8 7 7 7 7 6 5 5 5 5 4 4 3 3 4 4 4 5 5 4 5 6 7 7 7 8 10 11 12 11 9 9 10 10 10 10 10 11 10 11 11 11 11 13 15 15 15 15 15 14 14 13 13 13 13 13 14 14 14 13 12 13 11 9 9 10
15 16 14 12 13 11 6 8 8 9 10 9 10 9 7 9 11 10 9 8 8 8 6 6 6 6 5 5 4 4 2 4 6 6 5 6 4 5 5 5 6 7 7 9 10 9 10 10 9 9 9 10 10 11 11 11 11 11 13 12 12 12 12 12 12 13 12 11 12 13 12 13 13 11 10 11 10 10 9 9 11 14 11 10 11
16 16 13 12 11 9 7 9 9 10 11 12 9 8 13 13 5 8 6 7 11 8 5 5 6 6 6 6 6 5 5 6 7 5 3 2 2 3 4 6 7 7 10 13 11 9 9 9 9 9 10 10 11 11 11 12 12 12 12 12 11 12 12 12 12 12 12 12 12 12 12 11 11 10 11 11 11 10 11 11 12 11 10 11 10
13 14 12 12 10 7 9 10 8 10 11 11 10 10 9 9 16 15 10 8 14 15 14 15 15 14 7 7 10 14 12 9 7 5 3 2 1 3 5 6 7 8 10 8 7 8 9 9 9 10 10 10 11 12 12 12 12 12 12 12 12 12 11 12 12 12 12 13 12 12 12 12 12 10 10 10 10 11 11 10 11 11 11 11 11
12 12 10 9 6 7 10 11 9 7 9 10 10 9 10 11 10 13 12 12 15 14 16 15 15 15 15 10 6 7 8 8 5 4 3 2 3 4 6 6 8 9 10 10 8 8 8 9 10 10 10 11 11 11 12 12 13 13 13 12 12 11 12 12 11 12 12 12 12 12 11 11 11 11 10 10 10 11 11 11 10 11 12 12 12
12 11 10 7 9 9 10 9 10 10 8 8 10 11 11 11 10 9 10 14 15 14 15 15 15 15 14 14 14 11 9 7 6 4 2 3 4 5 5 8 9 10 11 7 7 8 9 9 10 10 11 11 11 12 12 13 13 13 12 12 13 13 13 12 10 11 12 13 12 12 11 11 11 10 10 10 10 11 11 11 10 10 11 11 11
11 9 8 10 12 11 9 10 9 12 12 11 11 12 10 10 12 11 9 9 9 11 13 13 14 13 12 10 9 8 7 6 5 4 4 4 6 7 7 6 11 12 8 6 8 9 9 10 10 10 11 11 12 12 12 12 13 13 12 12 12 13 13 13 13 11 11 11 12 12 11 11 10 10 11 11 11 10 10 10 9 10 11 10 11
6 12 15 13 13 11 11 12 11 10 11 11 10 9 7 8 10 11 10 10 9 8 8 6 5 7 8 7 7 7 6 5 5 5 3 4 5 7 12 5 5 6 6 8 8 9 9 10 10 10 11 12 12 12 13 13 13 12 12 12 12 12 12 12 12 11 11 11 12 11 10 10 10 10 10 10 10 10 10 9 9 9 9 9 10
10 9 9 9 8 6 10 11 9 8 8 9 10 9 9 9 9 10 9 9 9 9 8 7 7 7 9 9 7 6 6 4 4 3 1 4 6 9 5 8 8 7 8 8 9 9 9 10 10 10 11 12 12 12 12 13 13 13 13 13 13 12 12 12 11 10 10 10 10 10 11 11 10 10 9 10 10 10 9 9 8 9 9 10 9
11 10 9 9 9 11 11 11 11 10 9 7 6 9 9 9 9 9 8 8 8 8 8 9 8 7 7 5 6 6 5 6 7 9 11 9 9 5 7 7 7 8 8 9 9 9 10 10 10 11 12 12 13 13 12 13 13 13 11 10 11 13 13 11 12 11 12 12 11 11 10 10 9 9 8 9 9 9 9 8 8 8 8 9 8
11 11 9 9 11 11 11 10 11 12 9 8 10 11 10 10 9 8 7 7 8 7 8 8 8 7 6 5 7 5 6 8 9 10 11 10 1 7 6 6 7 8 9 9 9 10 10 10 11 11 12 12 12 13 12 11 12 13 12 11 11 12 14 13 13 11 10 10 9 10 10 9 8 8 8 9 9 9 8 8 8 8 8 8 9
10 14 15 12 8 8 8 9 9 9 8 8 8 8 8 7 8 7 7 7 7 6 5 6 5 4 4 4 5 5 9 6 1 3 4 6 7 6 6 6 7 8 9 9 10 10 10 10 10 11 12 12 12 11 9 11 12 13 12 12 12 12 12 12 11 11 10 9 9 9 8 8 8 8 8 8 8 8 8 8 8 8 8 8 8
10 8 8 10 6 7 7 7 8 8 7 9 9 8 7 6 6 6 7 7 6 5 5 5 5 5 4 4 2 3 2 1 1 2 3 4 6 5 5 6 7 8 9 10 10 10 10 10 11 12 12 12 11 11 11 12 12 12 11 12 12 12 12 11 10 10 10 10 9 9 9 9 8 8 8 8 8 7 7 7 7 7 8 7 7
7 7 6 6 8 7 7 7 8 9 8 8 8 7 6 5 5 5 6 6 6 5 5 5 6 6 5 4 5 6 4 2 1 1 2 4 4 4 5 5 7 8 8 9 10 10 10 11 12 12 12 12 10 10 11 11 12 12 13 13 12 12 11 10 10 10 10 10 10 10 9 8 8 8 8 7 7 6 6 6 6 7 7 8 7
7 7 7 6 4 5 6 6 7 6 7 4 5 5 4 3 5 5 6 5 5 5 5 6 6 6 6 7 7 9 6 2 3 2 2 3 3 4 4 5 6 7 8 9 9 9 10 11 12 12 12 12 10 10 10 12 12 12 12 13 13 12 11 11 11 10 10 10 9 9 8 8 8 8 7 6 5 6 6 6 6 6 6 6 6
7 8 8 6 5 6 7 7 6 6 6 6 6 6 5 5 6 6 5 4 4 4 5 5 5 5 6 7 4 5 1 3 2 1 2 2 3 4 4 5 6 7 7 8 9 9 10 11 12 12 12 12 12 11 11 12 11 12 12 13 13 12 12 11 10 9 9 9 9 8 8 8 7 6 3 3 4 5 5 5 5 5 4 5 5
8 8 7 6 6 7 7 7 7 7 7 8 8 5 4 5 6 6 6 5 4 4 4 4 3 4 4 5 4 1 2 2 2 2 2 2 3 4 5 5 6 7 8 8 9 9 10 11 12 12 12 13 12 11 11 10 10 10 11 11 12 13 12 11 10 10 9 9 9 8 7 7 7 4 1 2 2 3 3 3 4 4 5 5 6
9 8 7 8 8 8 8 8 8 7 6 6 6 6 5 6 6 6 5 4 4 4 4 4 3 3 2 3 2 2 2 2 1 1 2 3 3 4 4 5 6 7 8 8 8 9 10 11 11 11 11 12 11 10 9 10 10 11 10 11 11 11 11 11 10 9 9 8 8 7 6 6 5 3 0 1 2 4 4 4 4 6 5 6 7
9 8 8 8 8 8 8 8 6 7 7 6 6 6 6 6 6 6 5 4 4 4 4 3 3 3 2 3 2 1 2 2 2 2 2 3 4 4 4 5 6 7 7 8 8 9 10 10 11 11 11 11 9 9 8 10 10 10 10 10 9 10 10 10 9 8 7 7 7 6 6 5 4 3 2 2 3 3 4 4 4 5 5 6 6
10 9 9 9 9 9 9 8 7 7 7 7 7 7 6 6 6 5 5 6 5 3 2 2 2 3 3 3 2 2 2 2 2 2 3 4 4 4 5 5 6 7 8 8 8 9 9 10 10 11 10 9 11 12 10 9 10 11 10 10 9 9 9 8 8 8 8 6 6 5 5 4 4 2 2 3 4 5 6 5 4 5 6 7 7
9 9 9 9 8 8 8 8 8 8 7 7 7 7 6 5 5 4 4 4 4 3 3 3 3 4 3 3 2 2 2 2 2 2 3 4 4 4 5 6 6 7 8 9 8 8 9 9 10 9 10 10 10 11 11 9 9 12 12 11 10 10 13 14 9 9 7 6 6 5 5 5 5 5 4 4 4 5 6 6 6 6 7 8 8
9 9 9 9 9 8 8 8 7 7 7 7 7 7 6 5 5 5 4 4 4 3 3 4 4 4 3 3 3 2 2 2 2 3 3 4 4 5 5 5 7 7 7 8 8 9 9 9 8 10 8 9 10 9 11 10 8 10 11 12 14 19 18 17 13 12 12 7 6 6 6 6 6 7 7 6 6 6 7 7 7 7 7 6 7
10 10 9 9 9 9 8 8 8 8 7 7 7 6 6 6 5 5 5 5 4 4 4 5 5 4 4 3 3 3 3 3 3 3 4 4 4 5 5 6 6 7 7 8 8 9 9 9 9 10 10 9 9 9 9 8 11 11 11 14 18 19 18 17 16 18 12 7 7 7 7 7 7 7 7 7 6 7 8 8 8 8 9 8 7
11 10 10 10 9 8 8 8 8 8 7 7 6 6 6 6 5 5 5 6 5 5 5 5 5 4 4 3 3 3 3 4 4 4 4 4 4 5 5 6 6 7 7 8 8 8 8 8 10 10 9 8 8 9 9 8 8 11 15 20 19 18 17 16 12 16 18 12 7 7 8 8 8 8 7 8 8 9 9 10 10 10 10 9 9
Wind_Direction
240 224 200 205 215 219 227 226 223 222 221 216 218 215 212 201 192 190 190 191 181 178 182 182 181 180 178 175 174 170 166 166 165 165 161 148 136 137 151 153 157 142 145 160 159 179 304 295 241 258 265 280 295 278 269 280 260 258 273 275 273 273 271 277 279 283 285 284 287 292 298 299 287 281 283 283 278 273 265 271 276 277 279 274 265
256 248 235 221 219 220 224 232 230 227 224 220 221 223 215 210 201 190 189 190 187 184 186 183 184 183 181 180 177 174 173 168 169 171 165 156 153 156 160 161 154 142 159 153 147 171 196 270 311 302 299 293 289 287 285 282 279 270 251 255 279 284 278 283 286 286 290 292 288 296 294 289 283 290 295 297 294 290 283 281 274 270 271 276 270
280 280 266 250 243 240 235 233 231 231 230 227 224 224 221 212 203 196 192 189 191 191 190 184 186 186 184 183 178 176 175 169 172 175 167 169 167 164 165 165 164 162 174 169 204 130 220 237 258 236 236 271 282 283 289 274 291 295 293 289 285 278 279 279 287 287 288 291 294 288 285 290 290 295 293 288 290 291 285 278 276 272 271 266 263
259 245 252 261 267 271 270 265 261 254 241 237 237 228 223 217 209 209 205 195 191 193 192 186 185 186 185 183 179 175 173 170 174 177 175 174 173 168 169 169 171 174 178 194 201 235 256 256 231 251 268 275 287 300 286 296 290 294 296 277 262 261 266 270 263 272 282 286 290 291 295 298 289 283 287 290 284 276 275 279 271 270 270 263 257
347 319 296 279 271 271 278 286 288 283 279 277 267 252 243 234 221 211 212 209 199 192 191 189 186 186 185 183 179 178 176 175 175 175 172 176 173 168 174 168 170 174 177 193 207 240 239 241 256 268 266 278 276 276 303 304 298 297 295 294 285 281 272 267 272 274 278 280 285 286 285 283 287 287 286 287 288 283 279 271 268 269 270 270 274
16 30 10 327 302 297 281 273 265 259 254 245 245 244 243 236 225 217 218 217 205 196 191 189 187 187 183 182 181 180 179 178 176 174 173 172 170 171 170 170 173 178 176 205 210 210 227 242 244 255 271 275 282 288 286 284 288 284 284 289 296 299 293 287 281 275 276 276 279 282 276 277 280 277 281 283 285 289 289 287 283 273 266 263 260
16 22 14 351 350 355 344 318 290 277 267 259 255 252 244 238 236 226 219 217 209 200 196 194 188 184 180 180 181 181 180 178 176 175 173 173 173 170 169 171 174 172 184 187 187 197 221 227 242 245 254 266 272 276 279 279 273 274 271 270 273 278 281 284 285 287 285 285 281 278 280 274 270 276 273 272 275 275 279 282 277 269 258 256 253
18 6 9 10 14 13 351 313 298 291 287 279 268 259 254 250 246 241 228 221 217 211 205 199 193 185 179 178 179 180 178 178 175 174 176 174 172 169 166 171 174 169 172 180 173 190 197 212 229 241 249 264 289 289 283 276 281 279 277 275 273 270 271 271 270 272 275 276 276 282 283 287 282 273 273 267 268 269 267 275 284 290 289 279 274
22 25 20 16 10 349 325 313 305 288 279 278 276 271 263 254 251 247 236 224 223 222 212 189 188 188 178 176 175 174 177 176 178 177 172 170 168 167 165 168 170 169 174 170 174 186 201 199 223 218 25 353 328 299 291 298 290 275 274 275 271 269 268 265 271 271 270 270 273 273 273 275 278 282 279 272 268 275 293 294 288 285 281 276 269
18 13 16 19 344 326 312 297 287 289 281 276 272 270 271 268 260 251 246 239 227 222 210 178 172 169 177 177 172 171 172 181 148 155 160 165 165 157 156 165 176 172 179 172 185 206 218 243 219 146 212 232 241 242 242 250 249 261 278 283 278 274 270 270 269 268 270 271 271 274 274 272 272 273 277 282 288 287 280 273 268 271 271 268 268
357 0 3 349 322 309 308 305 296 286 286 280 271 264 261 262 260 256 250 243 231 170 156 142 136 174 198 186 174 173 169 130 119 114 107 123 150 150 159 161 169 180 182 194 216 218 233 238 268 191 202 219 225 223 236 237 237 245 251 256 268 273 278 274 271 269 270 272 273 270 268 268 265 267 269 276 279 279 279 278 274 272 271 273 271
339 343 342 335 324 315 304 301 297 294 284 277 271 266 260 253 251 256 254 229 190 182 176 181 187 184 186 185 171 150 120 115 121 122 130 139 152 155 162 168 177 187 193 202 219 233 251 263 258 270 270 271 301 282 229 214 223 232 234 243 249 254 256 263 267 268 266 267 267 264 266 265 266 265 266 265 267 269 265 265 264 268 269 267 270
322 321 316 314 314 311 307 301 301 293 284 280 272 262 258 254 246 236 232 229 229 214 192 192 187 180 165 152 133 114 110 130 128 140 149 147 153 217 173 176 189 191 201 211 241 260 268 266 268 263 273 179 225 253 283 286 221 209 220 225 231 236 244 242 244 254 268 269 268 267 264 270 271 266 265 270 277 275 279 275 275 271 263 263 265
318 312 303 301 304 303 300 299 294 293 287 278 265 256 245 252 249 236 228 227 227 225 206 188 180 168 154 145 128 131 136 151 150 154 156 157 171 224 181 176 209 216 214 228 234 248 248 258 269 272 273 272 277 274 283 288 300 295 278 272 272 237 222 228 236 238 240 251 257 263 265 266 268 272 275 276 268 267 270 271 271 272 268 264 267
316 309 304 305 308 310 309 305 297 290 286 280 268 256 247 243 248 247 233 221 218 214 198 179 168 159 158 158 158 143 137 150 156 161 160 168 179 223 189 179 214 225 231 237 248 253 260 261 265 268 274 275 278 294 287 291 294 293 286 281 274 273 274 262 242 233 229 230 243 253 265 268 270 273 275 273 268 266 266 271 275 275 281 289 288
317 318 316 319 320 322 315 307 298 290 284 278 264 255 244 234 234 237 236 228 214 204 187 173 163 157 141 139 135 132 136 157 168 168 164 170 177 212 197 204 226 237 240 244 249 257 258 261 265 273 278 277 282 221 235 281 291 289 286 281 278 276 272 262 264 272 281 286 280 279 274 285 301 294 296 300 305 304 292 270 262 265 269 265 263
316 317 316 321 324 319 316 307 300 290 280 271 260 250 244 235 231 229 227 223 211 189 167 161 157 149 137 125 113 115 146 174 174 169 167 166 183 212 213 232 239 237 248 256 261 262 261 260 262 277 283 286 298 294 223 251 289 289 288 286 284 282 275 275 254 234 229 237 251 268 278 283 283 282 278 279 278 286 287 276 263 259 258 260 262
310 311 313 317 317 316 311 306 298 291 279 268 260 245 238 238 232 226 227 223 215 188 163 153 151 137 128 122 135 143 148 167 175 172 171 175 208 230 246 253 260 267 268 267 270 270 270 242 259 270 276 279 295 345 347 286 291 293 293 292 289 286 282 282 281 271 236 220 229 241 251 261 269 273 279 279 276 267 261 256 255 258 259 259 264
302 307 310 309 307 307 305 301 296 287 279 269 259 248 238 236 236 226 225 224 215 197 167 152 133 130 135 140 131 132 141 159 174 174 181 180 210 246 264 271 275 277 281 280 277 281 280 246 207 224 253 271 278 270 273 276 282 289 295 296 291 286 285 286 284 283 281 278 269 257 248 239 240 246 250 245 245 254 258 259 255 253 257 260 259
297 298 297 298 296 293 292 291 285 278 273 270 258 249 246 240 236 229 224 221 210 191 164 130 131 130 130 127 150 143 131 144 171 170 155 165 234 282 291 289 286 287 286 287 293 287 286 283 271 215 222 242 263 279 276 264 268 280 291 287 285 281 283 282 282 287 284 279 275 272 272 274 276 270 264 256 241 232 240 248 247 248 253 254 254
291 292 291 288 285 285 288 286 283 276 268 266 263 250 240 239 236 231 223 210 195 176 148 124 126 127 129 137 151 126 84 108 129 143 146 153 152 233 264 276 282 287 287 294 290 292 291 293 289 10 101 137 204 236 246 242 248 273 283 279 274 286 305 290 284 286 279 275 273 272 272 271 267 262 260 259 257 254 247 238 241 243 246 249 249
287 285 283 283 282 281 282 282 280 274 265 257 256 253 243 238 230 217 199 183 146 106 95 93 98 100 105 108 115 122 95 57 126 141 146 153 155 215 273 289 351 308 295 288 291 285 292 295 295 49 49 6 328 302 281 276 271 277 278 276 281 286 282 278 282 280 275 272 271 270 269 265 261 259 257 256 256 253 251 251 245 241 242 244 248
281 278 278 279 279 277 277 279 274 264 257 253 250 250 236 224 213 174 161 136 112 111 107 107 111 124 143 136 132 126 123 123 78 108 117 118 129 178 207 293 16 287 286 287 291 291 290 298 288 13 342 331 319 312 304 296 288 279 276 274 273 272 271 273 273 272 268 267 267 266 263 261 259 258 256 256 253 251 252 250 249 250 247 248 246
272 270 267 266 268 267 270 274 271 263 253 248 244 249 215 182 143 134 124 117 109 96 101 113 130 138 138 146 155 138 128 123 112 81 93 100 117 166 190 215 266 285 303 293 290 292 289 293 330 338 315 306 293 285 282 278 277 277 273 272 270 268 270 273 269 265 264 262 261 257 255 253 254 254 252 253 253 252 251 252 253 253 252 252 250
265 263 259 259 259 262 267 271 272 263 256 245 227 132 129 138 130 129 116 113 112 117 127 125 129 140 134 148 136 123 107 103 129 138 161 163 188 191 203 220 226 229 265 289 289 295 309 309 289 280 281 280 277 273 269 259 253 253 257 261 262 269 272 269 266 262 260 259 255 253 251 249 250 252 254 255 257 257 254 253 253 252 252 251 253
265 263 262 258 258 259 259 261 262 262 241 200 168 162 156 147 137 135 123 125 130 133 132 158 161 132 139 137 122 108 115 117 115 146 179 186 192 177 208 209 226 218 236 264 268 268 263 260 261 258 262 265 274 287 299 297 294 285 278 273 270 271 268 268 266 263 261 260 258 257 257 257 256 255 257 256 253 252 250 250 250 250 249 249 250
264 261 258 258 255 254 253 256 254 210 161 164 169 165 154 141 135 132 133 137 132 131 152 147 138 147 148 143 141 143 139 138 124 73 11 5 350 278 215 216 205 218 234 263 260 276 291 297 299 296 279 274 268 263 262 265 262 262 261 267 272 275 272 270 270 268 264 262 262 261 261 262 263 261 257 253 251 248 246 247 249 250 250 250 250
256 257 256 253 249 242 243 161 159 174 175 170 158 149 143 141 126 119 128 131 133 141 129 135 136 145 154 152 147 143 141 120 78 31 18 357 347 333 332 321 318 327 313 319 324 307 298 293 282 286 300 301 299 307 302 301 296 294 289 288 286 284 279 273 268 270 269 271 269 267 263 262 260 257 257 255 252 250 247 246 243 245 240 247 249
249 248 248 248 243 241 226 153 169 171 165 159 152 140 142 136 131 131 142 155 135 124 136 141 152 162 157 136 128 130 111 89 64 48 37 19 349 339 329 334 335 319 4 353 311 295 298 305 308 303 305 307 307 306 305 303 301 297 295 291 290 289 287 286 282 279 276 270 264 260 260 260 259 256 255 254 250 249 241 240 241 244 242 239 244
246 242 238 238 242 221 196 170 172 167 155 150 121 83 44 34 59 128 119 77 106 117 123 125 121 143 114 76 43 50 67 71 96 107 100 150 186 277 309 310 315 308 312 304 289 295 309 311 311 309 308 310 312 310 308 308 306 302 299 295 290 287 284 283 280 278 276 274 274 272 267 262 259 257 255 254 253 245 243 237 241 236 238 240 243
234 233 228 229 227 208 168 168 162 162 154 138 127 126 114 66 45 48 67 94 88 83 77 71 59 44 60 109 79 74 85 95 103 104 133 143 322 325 314 322 313 308 302 310 306 316 319 315 312 311 310 310 308 309 309 307 305 303 301 298 294 289 283 278 278 278 276 273 270 265 264 260 258 251 248 247 249 251 251 237 236 237 237 239 241
230 226 217 216 167 157 167 160 149 137 141 138 133 118 113 111 86 50 58 90 96 93 90 83 75 70 56 53 93 119 109 103 102 112 87 18 344 324 320 313 302 297 300 289 291 322 321 316 315 313 313 310 310 311 308 306 305 303 302 297 291 288 285 283 280 277 275 274 271 267 262 260 256 254 250 248 243 243 241 238 233 236 239 241 242
218 213 211 172 153 156 155 151 138 134 155 143 125 134 127 112 106 108 75 64 73 81 84 85 84 80 76 67 59 67 80 86 102 85 22 2 332 326 311 285 267 264 271 292 333 322 322 319 314 314 313 311 310 310 309 307 306 305 303 298 294 291 287 283 279 275 273 270 268 264 260 257 255 254 252 248 242 241 240 236 234 233 235 237 239
196 206 186 159 159 157 147 147 150 156 152 148 142 132 129 133 129 121 117 115 93 71 61 72 85 87 82 87 97 107 106 112 91 69 22 2 336 319 311 284 258 243 238 320 328 328 323 322 318 318 316 311 310 308 306 305 304 303 299 296 295 294 291 288 286 278 274 272 268 265 261 259 256 255 254 251 244 239 235 232 228 231 233 233 235
134 118 132 150 151 152 156 146 145 147 128 126 120 117 124 133 132 138 147 145 137 130 129 115 86 78 104 107 102 108 115 101 73 47 25 335 312 312 288 301 344 359 336 340 328 324 324 320 320 318 316 314 312 310 308 307 306 302 299 298 297 294 290 287 283 279 275 274 271 266 262 259 256 252 251 248 242 232 229 226 224 223 230 234 232
120 120 121 121 120 131 122 123 115 110 118 117 130 143 150 146 151 156 153 146 140 138 136 127 120 95 101 100 124 118 114 113 117 160 314 255 271 275 340 11 350 351 338 336 332 325 322 322 319 318 318 317 315 313 310 307 303 301 299 297 295 293 292 288 283 279 275 275 274 271 268 264 260 255 251 245 237 232 227 223 222 223 226 232 232
112 108 104 106 119 122 119 116 119 125 128 143 151 141 142 155 160 154 153 151 146 145 136 134 136 140 141 138 147 139 139 148 186 207 218 219 227 261 16 353 353 337 346 337 337 330 324 324 324 321 321 318 316 313 312 306 302 300 295 289 289 290 291 290 286 283 281 279 276 273 267 263 260 252 246 246 239 232 227 223 222 224 226 226 227
106 108 113 113 111 111 116 120 127 136 154 180 159 150 159 158 155 150 149 146 151 148 150 147 152 157 162 142 175 175 166 192 204 216 220 218 258 13 2 358 349 346 341 342 336 335 330 329 328 326 319 316 314 313 310 303 300 298 297 293 291 290 286 286 283 278 272 273 271 271 270 262 256 254 247 243 240 231 221 215 218 222 222 226 226
80 89 90 85 95 115 117 126 137 156 165 150 142 144 139 142 145 145 144 146 154 153 147 145 159 127 120 138 163 175 202 200 150 41 35 10 17 11 3 350 350 346 343 339 341 337 338 333 329 324 318 316 314 310 305 303 302 302 298 299 297 296 295 295 293 288 283 276 276 276 269 267 263 258 248 243 235 229 223 214 211 215 218 216 218
95 95 99 104 102 102 120 132 150 155 147 145 142 135 141 147 148 142 147 147 148 144 136 131 122 109 88 52 11 334 1 73 60 41 28 12 16 10 350 349 345 345 342 341 342 341 336 333 327 323 319 315 311 307 304 304 306 305 303 303 301 299 295 292 289 290 288 286 284 283 282 279 276 271 262 250 240 224 219 213 213 211 220 224 219
78 83 75 76 92 108 124 146 149 145 141 137 139 145 145 146 136 141 137 138 139 134 132 127 109 89 71 50 16 347 319 30 60 48 41 21 6 354 344 339 341 341 341 341 341 340 337 330 326 320 317 313 309 308 308 305 305 307 310 309 306 301 299 296 295 294 294 293 292 290 287 283 280 275 265 250 227 221 219 215 213 215 217 225 224
98 98 97 98 103 120 119 107 106 104 107 108 117 119 124 127 134 130 130 137 129 129 127 120 112 107 90 60 39 345 309 60 23 21 13 12 353 348 338 333 340 343 336 338 339 339 336 328 324 323 319 316 312 308 308 308 308 309 310 311 310 308 305 305 304 300 297 295 292 291 292 292 287 279 268 251 218 210 213 209 212 214 215 211 203
101 105 104 105 105 109 107 103 103 98 89 86 81 75 85 102 105 104 103 102 112 123 121 115 115 117 102 75 49 289 300 68 50 359 350 334 335 335 335 337 340 337 333 331 339 340 333 329 327 327 324 318 314 312 310 311 310 313 314 313 312 311 311 309 307 305 306 303 301 296 292 294 293 287 262 218 219 209 212 203 206 199 191 173 163
90 86 86 85 79 75 74 80 75 72 71 68 71 76 90 97 95 99 101 100 103 104 100 97 93 93 110 138 172 196 58 40 33 351 336 306 316 324 334 337 335 331 328 332 340 342 334 333 335 332 328 326 322 318 314 312 316 314 317 315 314 313 314 313 311 309 309 307 304 305 308 301 294 293 273 211 197 185 188 172 158 148 153 163 161
94 95 91 85 80 82 79 77 82 88 92 91 84 78 72 77 79 77 83 94 86 78 76 78 86 103 98 88 72 50 49 53 29 336 320 318 310 316 325 330 330 329 324 325 334 336 337 337 337 336 330 330 331 324 318 319 319 323 321 318 313 315 316 314 309 306 299 299 309 316 314 312 313 329 1 145 152 149 142 146 151 150 153 155 153
82 80 80 82 82 81 80 78 76 77 76 77 80 76 71 68 68 65 63 64 62 67 78 81 79 70 73 67 59 53 42 25 359 341 326 322 323 319 318 323 322 321 321 324 327 330 339 336 339 338 335 330 326 325 319 329 325 325 323 322 316 311 309 309 307 304 301 318 329 321 318 319 336 7 24 98 107 123 129 135 144 149 143 136 129
76 78 76 79 77 75 69 65 61 66 69 64 65 67 67 68 71 74 66 58 65 71 71 75 77 72 65 62 43 30 20 6 357 337 326 323 324 323 323 319 317 317 322 323 321 331 340 341 343 341 336 325 331 333 332 332 338 339 334 327 320 322 321 323 327 326 324 336 346 339 335 335 347 28 63 91 108 106 106 112 116 120 124 121 120
69 68 69 71 75 77 78 80 80 75 75 72 68 68 68 70 74 69 79 84 84 85 89 79 70 64 58 47 28 6 3 348 336 327 327 323 332 332 331 322 318 320 320 321 324 334 337 340 344 344 342 337 335 337 339 335 337 344 344 339 332 334 345 349 348 342 335 348 5 12 16 19 27 37 53 72 86 97 99 99 95 92 104 115 115
63 64 66 63 66 68 70 71 70 72 75 79 78 75 73 72 68 70 71 69 70 64 58 56 58 56 49 40 19 359 353 335 337 336 330 331 332 333 334 331 323 319 318 323 326 332 335 339 340 351 348 345 341 332 339 341 332 346 349 349 347 349 354 357 1 360 348 353 10 25 30 34 39 48 43 53 68 80 86 90 94 97 94 86 93
60 61 65 67 70 71 73 73 74 76 75 76 76 77 76 74 70 68 67 64 60 54 51 49 48 42 35 28 16 2 352 343 342 334 331 333 336 338 340 336 330 326 323 324 326 332 335 332 345 355 356 354 342 340 336 341 352 350 353 354 353 356 359 2 5 4 1 6 7 34 34 43 41 47 55 56 54 67 82 87 93 95 100 95 86
61 61 63 63 65 68 68 71 71 72 73 75 76 76 74 73 71 67 61 55 50 45 43 42 42 37 31 27 13 2 356 345 336 331 332 336 338 339 343 340 335 329 325 322 328 332 334 330 346 356 0 349 343 344 341 334 336 346 354 359 358 356 1 8 12 9 9 8 7 16 40 36 44 48 60 66 72 71 77 85 91 95 100 102 101